Wind_Speed
4 4 4 3 4 4 3 4 2 3 4 4 2 9 10 4 5 6 9 9 10 4 8 10 11 12 11 9 9 10 10 9 8 9 7 6 5 7 8 9 10 11 12 11 12 12 11 11 11
3 1 1 2 4 2 4 4 5 5 2 4 7 5 7 3 6 4 5 12 9 3 7 10 11 12 11 10 9 10 10 9 8 8 8 5 5 6 7 7 8 8 10 10 10 9 10 11 11
1 2 3 4 3 4 3 3 6 3 7 5 4 6 4 3 4 3 10 5 9 2 8 9 10 11 11 10 10 10 10 9 7 7 7 3 4 7 8 7 7 8 8 8 8 6 9 11 10
4 4 4 4 5 4 5 4 6 3 8 7 3 7 5 9 3 7 9 6 6 7 5 9 8 9 10 10 9 9 9 8 7 7 6 4 1 6 8 10 10 8 9 8 7 5 9 10 10
2 3 3 1 3 2 4 4 4 5 4 3 3 4 5 4 9 8 11 8 4 8 6 7 8 8 9 9 10 10 9 9 8 6 6 6 4 6 7 10 11 10 10 9 7 7 7 8 8
3 3 3 2 2 2 4 6 3 3 5 1 4 4 2 4 8 9 9 12 8 6 7 3 5 8 10 10 9 9 9 9 9 8 8 8 6 7 7 10 11 11 10 9 9 9 7 8 8
4 3 4 2 8 4 3 4 5 4 4 4 4 4 3 1 4 7 9 9 9 9 5 6 2 5 10 11 12 12 11 11 11 11 10 9 9 9 10 10 12 15 13 11 9 10 9 9 9
3 3 1 1 3 2 4 3 1 7 2 9 3 2 3 4 3 3 5 6 7 7 4 1 4 4 6 9 11 13 14 14 14 13 12 11 10 11 11 11 12 16 15 12 11 11 11 9 9
3 4 1 4 3 3 3 4 5 2 2 4 3 2 6 10 7 4 3 4 4 4 5 5 3 3 4 6 10 13 14 15 16 16 15 14 13 13 13 14 15 19 17 14 13 13 13 11 10
4 3 2 2 2 3 4 5 3 4 6 3 3 4 10 7 7 5 5 6 8 9 9 9 8 7 7 10 11 9 17 16 17 18 18 17 16 15 15 15 16 20 20 16 15 16 15 14 12
2 3 4 3 4 5 3 4 5 0 4 6 0 6 7 7 10 9 10 10 10 12 12 13 13 11 12 13 12 10 12 17 18 20 19 18 18 17 18 18 18 20 21 19 17 17 18 18 16
5 5 4 4 3 3 2 3 6 4 7 6 7 6 5 8 10 13 16 17 17 16 16 16 17 17 16 14 14 17 19 14 21 16 17 18 18 17 21 24 22 20 23 22 20 20 20 20 19
3 3 4 6 5 2 2 3 6 9 11 10 10 9 7 7 11 16 17 17 17 16 16 16 16 17 18 19 17 17 20 19 17 19 20 23 23 21 22 27 28 25 24 24 23 21 21 22 21
3 5 5 5 3 2 2 3 2 6 7 7 8 7 7 7 14 17 18 19 17 18 19 18 15 16 17 19 21 19 19 21 21 24 22 24 24 21 26 28 27 25 24 23 24 23 21 21 20
2 3 1 4 3 2 2 4 8 12 5 6 8 7 8 10 19 20 25 24 22 20 21 22 21 21 19 20 22 23 22 24 23 22 23 24 23 24 22 27 27 24 23 23 23 24 22 22 22
2 4 2 1 5 2 2 6 6 1 2 6 8 8 8 10 11 15 6 4 6 9 11 15 20 21 21 23 22 24 25 25 27 21 25 27 25 26 25 26 25 23 23 25 27 24 24 22 20
3 1 3 2 6 3 3 6 7 7 7 9 8 8 6 6 12 20 15 12 12 16 20 22 24 22 24 26 27 25 26 27 27 26 23 27 27 28 23 24 24 23 24 24 25 29 27 27 24
1 1 3 2 4 3 4 12 12 10 8 10 7 7 7 8 7 18 25 23 20 17 17 19 24 27 27 26 29 28 27 29 29 30 28 22 28 27 28 27 26 26 25 26 25 27 30 27 24
1 1 3 2 1 4 6 8 16 10 6 5 5 7 7 8 12 20 23 25 26 27 26 25 27 25 25 25 27 29 28 27 31 32 32 31 25 31 30 30 29 25 25 26 22 21 22 21 21
4 3 4 2 3 4 8 15 18 15 3 5 6 8 8 10 12 19 25 25 26 27 29 30 30 28 25 26 27 24 24 25 30 30 31 32 31 27 29 32 29 30 25 23 19 19 20 19 17
3 3 3 2 7 4 9 8 4 3 8 8 8 5 4 7 11 11 20 24 26 28 30 30 30 30 31 28 26 27 26 25 23 25 28 29 32 28 25 26 28 24 23 20 19 20 20 18 18
3 5 5 5 5 2 5 5 6 2 4 6 5 5 6 7 8 9 17 20 24 27 30 31 31 30 31 26 26 25 26 23 22 26 23 24 30 31 31 24 24 27 24 23 24 23 22 20 20
2 4 3 2 3 4 4 2 7 2 5 4 7 8 7 8 8 10 16 21 24 25 27 31 29 27 28 22 22 23 24 22 25 23 24 20 21 28 30 34 30 24 23 25 24 22 23 22 23
4 3 3 1 1 3 5 5 6 3 4 2 3 7 8 8 8 9 17 20 24 28 27 30 21 20 20 20 18 17 24 24 23 21 22 21 21 23 26 28 32 35 30 26 24 23 24 25 26
1 4 3 2 0 5 3 2 9 5 4 4 4 8 9 7 5 8 12 17 21 23 25 25 24 16 11 13 16 20 22 24 24 20 21 24 25 25 26 26 23 24 27 24 22 23 24 25 27
1 2 1 3 2 5 3 6 6 4 6 6 7 8 6 6 5 4 8 12 16 22 23 24 23 21 16 14 13 16 17 18 20 22 21 22 26 27 24 25 23 24 21 22 23 24 25 26 25
1 1 3 2 2 3 4 7 4 4 5 6 8 6 6 4 4 3 8 11 15 17 19 20 20 16 15 13 11 4 4 7 7 14 20 19 17 19 19 17 15 15 14 16 21 23 22 24 24
2 1 2 2 3 4 5 5 5 5 7 8 7 7 6 3 3 2 5 10 13 14 17 20 19 18 16 12 11 10 8 6 6 7 9 12 14 16 13 14 14 13 11 14 15 20 21 23 26
2 2 3 1 3 2 4 6 6 7 8 9 8 7 6 4 2 2 0 7 11 14 17 18 20 18 18 15 12 10 8 6 4 5 4 5 9 12 9 4 2 3 8 13 13 16 22 24 22
5 6 5 3 3 3 2 6 4 7 7 6 7 6 5 6 6 4 5 1 5 8 13 14 16 18 16 15 15 15 13 12 10 5 3 4 6 8 7 5 6 7 5 3 4 5 4 8 8
Wind_Direction
176 163 318 19 71 72 253 264 119 52 49 344 354 80 104 65 32 135 78 42 34 167 190 185 176 174 173 170 171 171 165 158 151 143 127 121 124 124 132 127 115 103 120 122 111 112 105 102 98
172 329 224 74 94 108 264 231 74 59 177 28 39 40 50 65 12 79 16 11 28 190 194 182 178 179 177 174 171 172 165 162 156 155 151 133 147 138 138 139 136 121 122 126 122 115 120 114 113
276 321 87 124 148 179 202 84 118 77 47 37 55 63 63 347 40 61 353 21 28 172 188 177 184 185 182 178 174 171 169 166 161 161 161 152 165 157 152 149 140 144 143 142 133 122 130 130 127
26 24 18 104 213 298 112 142 102 68 21 39 58 75 68 42 57 33 15 21 61 100 173 202 184 190 191 188 186 182 182 177 171 169 160 204 212 174 167 162 161 163 159 164 160 155 140 137 135
237 71 68 188 207 149 71 116 100 78 111 37 45 136 106 55 96 73 44 44 56 69 124 174 196 198 201 197 193 192 194 190 182 192 186 193 214 198 191 189 185 182 175 177 173 163 153 149 147
34 97 84 219 133 104 31 8 50 80 105 66 56 100 116 105 75 60 65 51 41 61 82 138 199 215 209 205 209 210 207 203 208 210 205 203 207 213 209 206 200 196 192 189 184 178 177 175 165
112 90 188 238 157 78 357 343 56 2 27 15 308 76 140 54 79 68 58 57 50 46 66 83 157 218 209 213 214 213 215 215 218 219 215 209 213 214 214 213 216 207 202 198 197 188 181 173 179
91 99 297 353 171 92 333 41 34 63 347 308 34 81 160 219 154 94 56 56 42 29 15 54 73 205 239 234 226 222 221 224 226 230 226 224 219 216 216 215 212 201 206 208 203 201 191 188 188
46 68 22 2 82 127 26 56 359 332 320 341 342 93 174 174 182 132 51 12 351 343 344 330 283 222 223 235 251 244 233 229 229 229 231 230 228 226 217 219 214 206 210 214 214 209 207 201 201
79 87 106 15 18 88 88 70 345 13 0 309 311 338 24 51 39 12 349 329 317 306 295 293 292 275 253 237 237 253 236 236 237 235 231 229 230 230 226 221 218 208 209 216 218 217 216 212 209
88 119 146 49 81 38 50 25 328 318 290 226 331 300 323 337 337 336 321 310 304 301 290 285 281 277 268 259 251 234 232 244 242 239 239 238 237 230 224 225 214 208 211 216 218 218 219 221 217
104 74 81 129 45 40 72 343 321 234 231 259 278 269 302 319 311 304 300 297 296 292 288 284 278 271 268 261 257 245 234 250 237 236 235 234 235 235 225 223 212 212 215 220 222 223 226 227 225
85 128 100 127 147 215 257 247 245 259 253 268 288 298 292 288 289 289 285 286 287 283 290 288 286 281 269 262 257 257 248 240 231 230 237 238 238 237 236 223 214 215 219 223 227 231 234 233 231
83 127 144 159 191 227 231 261 340 269 260 252 249 256 267 263 264 270 274 271 270 278 283 286 283 283 285 268 255 253 256 247 251 248 243 230 228 237 236 222 219 220 224 228 227 231 232 235 232
82 82 130 206 205 180 96 257 233 249 299 240 245 250 256 251 256 249 255 258 264 272 285 281 278 277 276 274 265 253 250 249 253 250 238 228 232 233 232 224 223 227 226 228 226 230 232 236 240
81 46 105 204 152 206 133 260 257 240 26 317 291 278 271 269 277 291 317 338 322 310 306 292 284 279 275 268 265 259 251 251 253 254 241 239 237 231 231 227 228 231 229 228 228 228 223 231 239
17 181 180 237 196 151 177 264 240 298 320 294 280 273 308 336 18 6 356 344 324 315 308 300 292 286 281 272 260 262 256 250 253 256 248 240 241 233 233 236 239 233 233 234 231 233 233 234 237
86 235 196 224 218 227 228 257 275 273 274 272 334 27 31 20 10 352 348 348 347 338 328 322 304 288 282 277 258 256 258 253 247 252 250 243 238 236 236 238 239 237 233 232 235 236 235 239 241
349 47 23 63 62 276 257 284 283 282 265 83 52 32 24 11 344 345 340 335 328 322 321 311 309 305 283 275 258 245 248 254 253 250 252 249 243 240 231 234 233 231 227 227 228 235 236 236 237
44 47 353 39 33 326 316 293 277 274 221 139 79 35 15 351 343 333 332 330 327 321 317 310 301 297 292 271 267 256 246 250 252 252 256 261 249 242 241 230 228 226 218 219 219 224 237 240 245
50 59 33 331 338 348 350 309 355 18 116 93 57 48 8 336 328 324 330 326 318 310 305 302 297 293 291 280 266 262 248 247 245 245 251 257 254 243 244 241 230 221 217 218 222 231 237 236 246
76 19 24 358 29 286 75 283 301 229 200 89 25 17 344 336 307 318 331 324 315 311 306 299 291 286 286 288 260 251 244 241 247 244 250 256 250 252 237 240 240 233 230 226 229 234 237 239 244
111 343 273 262 284 33 323 63 269 296 227 301 7 2 319 294 294 322 329 330 321 320 318 310 286 281 279 281 258 247 245 251 258 257 251 257 259 252 249 240 239 239 231 235 230 232 238 238 243
318 336 299 168 308 343 230 143 275 223 218 341 343 306 294 295 302 331 341 340 339 338 334 336 328 297 285 281 252 247 247 250 254 255 254 258 260 260 246 244 240 242 240 241 242 241 241 243 244
190 50 356 329 309 228 196 110 248 234 160 184 233 270 277 283 296 351 350 345 343 338 341 346 1 18 341 288 263 258 256 250 248 253 252 256 259 262 252 242 242 236 237 236 241 243 246 245 245
3 329 196 253 306 271 318 241 257 163 169 193 224 250 289 319 342 331 338 353 349 349 350 353 0 0 358 347 288 262 257 249 253 255 260 262 262 264 266 249 250 256 244 238 239 245 246 244 249
355 183 117 104 226 276 242 285 297 163 205 229 236 273 282 305 323 333 344 3 2 357 357 355 0 5 5 4 0 23 245 243 258 261 255 260 263 274 268 255 260 259 259 246 247 246 248 248 254
51 78 193 137 302 280 283 277 240 262 245 224 237 253 263 270 12 30 356 350 13 14 11 13 12 17 21 17 15 19 20 7 346 300 263 258 254 259 255 235 237 240 248 249 252 259 260 264 264
151 198 220 335 179 222 304 267 217 225 210 210 227 228 251 233 183 197 9 23 16 15 34 33 24 22 30 36 34 32 27 13 332 303 275 250 244 242 217 186 215 268 284 288 278 264 266 259 257
177 191 175 141 201 233 243 271 209 223 213 221 237 223 255 211 193 200 204 292 30 23 19 33 41 39 40 44 55 61 67 69 65 75 113 158 156 157 158 160 129 90 89 109 200 169 82 184 153
Height
791 792 794 794 822 829 829 809 789 790 791 789 782 788 801 802 807 823 809 806 806 806 807 807 808 810 812 813 814 815 816 817 819 820 821 822 822 822 823 824 824 825 825 827 827 828 829 830 830
791 793 795 802 830 838 829 799 807 799 791 785 783 788 798 811 803 806 807 807 807 806 807 807 808 810 812 813 814 816 816 818 819 820 821 822 822 823 824 825 825 826 827 828 828 829 829 830 831
792 794 801 814 828 831 820 804 802 794 789 788 792 796 804 813 808 810 810 808 806 805 807 807 808 810 812 813 814 816 817 818 819 820 822 822 822 823 824 825 826 827 828 828 829 830 830 830 832
793 794 801 819 822 803 804 803 795 794 791 790 793 809 808 811 811 812 810 808 807 806 807 808 809 810 812 813 815 816 817 818 819 820 822 823 823 823 824 825 826 827 828 828 829 830 831 831 832
795 801 818 818 814 805 801 795 793 798 799 797 796 809 815 813 813 812 810 809 808 807 807 808 810 811 813 814 814 815 817 818 819 820 821 822 823 823 825 825 826 827 827 828 830 831 832 832 832
802 804 825 825 811 804 803 800 794 799 800 800 801 807 816 815 813 812 810 809 809 808 807 809 810 810 812 813 815 816 817 818 818 819 820 821 822 822 823 824 825 826 827 828 828 829 831 832 832
803 814 819 808 817 812 809 800 811 812 808 808 804 812 817 814 813 812 811 810 809 809 809 809 810 810 811 812 813 814 816 817 817 818 819 819 820 821 821 823 825 825 826 827 829 829 830 831 831
803 811 809 804 815 822 811 806 807 813 813 806 802 817 818 811 811 811 810 810 810 809 809 809 809 810 811 811 811 812 814 815 816 817 817 818 818 819 820 821 822 824 825 826 827 828 828 829 830
799 820 822 822 814 820 812 813 810 809 812 810 807 807 808 808 809 809 809 810 810 810 809 809 809 809 810 810 811 811 811 812 813 813 815 816 817 817 818 819 820 821 823 824 825 827 828 828 829
809 826 818 818 818 818 814 817 816 816 819 813 809 806 808 809 809 809 808 808 808 809 809 808 808 807 807 808 808 808 809 810 810 811 812 812 813 815 816 817 817 819 821 822 823 825 826 826 827
805 820 814 818 817 816 816 818 816 817 820 815 814 812 809 808 808 808 807 807 807 806 806 806 806 805 805 804 805 805 806 807 807 808 809 810 811 811 813 815 816 817 818 820 821 822 822 824 824
813 813 814 817 818 819 820 821 822 818 815 808 809 808 806 805 805 805 804 805 805 803 803 803 803 803 803 803 802 803 803 804 804 805 806 807 808 808 809 810 812 814 815 817 818 819 820 820 822
811 815 816 819 820 822 821 824 825 816 810 807 807 806 806 806 805 804 803 802 802 801 800 800 800 799 799 800 800 799 799 800 801 801 802 803 804 805 806 807 808 809 811 813 815 816 817 818 818
812 814 816 819 819 818 821 823 820 808 804 806 806 805 804 804 802 801 799 797 798 797 797 797 797 796 796 796 796 796 796 796 797 797 798 798 799 801 801 802 804 806 807 809 811 812 814 815 816
813 817 818 820 820 821 822 824 821 805 806 807 806 804 802 801 799 797 795 794 794 793 793 793 793 793 792 792 792 792 792 792 792 792 793 793 795 797 797 798 799 800 803 806 809 809 811 811 813
818 821 827 820 820 822 822 824 808 803 805 807 806 803 801 796 795 795 794 794 793 793 791 790 790 788 788 787 787 787 787 787 788 788 788 790 790 792 793 794 795 797 799 802 804 806 807 808 809
823 839 824 821 819 821 823 822 807 804 806 805 803 801 800 798 796 797 795 793 791 790 789 787 786 784 783 782 781 781 781 782 782 783 783 784 786 787 787 789 791 793 795 797 799 801 803 804 805
828 825 818 817 821 820 822 821 809 806 805 804 804 804 804 802 801 799 796 793 792 789 786 784 782 780 778 777 776 775 776 776 776 776 778 779 781 782 783 785 787 788 790 792 794 795 797 798 800
822 820 821 817 817 820 819 818 804 799 801 806 806 807 805 804 802 799 797 793 790 787 783 780 778 774 772 772 770 769 768 770 770 771 772 774 775 777 777 778 782 783 784 785 789 791 793 794 795
823 824 828 820 816 818 819 811 798 793 795 803 805 808 807 804 801 798 795 791 788 784 780 776 773 769 767 766 765 765 764 763 764 766 767 768 770 771 772 774 775 777 779 781 783 786 788 790 792
824 827 831 831 826 821 820 817 797 791 799 803 809 810 808 806 803 799 795 790 786 780 775 771 767 763 761 759 758 759 759 759 760 760 762 763 764 766 768 769 770 773 775 777 778 781 784 786 788
828 827 828 830 842 856 831 859 817 795 796 805 812 810 806 803 800 795 792 788 784 778 772 765 760 756 754 753 752 753 754 754 756 757 757 758 759 760 763 765 767 769 770 772 775 777 779 781 783
833 830 832 832 837 855 839 868 820 801 798 799 809 806 805 800 797 794 790 785 780 774 766 759 751 749 748 747 747 748 749 750 752 754 754 755 755 755 757 760 763 765 765 766 769 772 774 776 779
829 830 830 831 832 869 835 850 827 815 798 802 808 806 802 798 794 791 787 782 776 770 764 755 747 743 744 743 743 744 746 746 749 750 751 752 753 753 752 754 756 759 761 762 764 767 770 772 773
830 837 863 839 839 856 819 846 813 797 801 802 804 802 798 795 791 786 784 781 777 771 764 757 749 744 743 742 741 741 741 743 744 746 747 749 750 749 749 751 752 753 755 756 760 763 765 768 768
823 828 843 870 859 858 823 833 808 791 797 798 798 797 792 791 789 788 785 781 777 771 765 759 752 748 743 741 740 739 740 740 741 742 743 745 746 747 748 749 749 751 752 755 756 759 760 762 763
831 836 838 869 860 834 843 813 792 795 796 797 795 791 791 789 789 788 785 781 775 771 767 762 757 751 748 745 742 739 738 738 737 737 740 742 744 744 745 746 747 748 749 751 753 753 755 757 758
836 838 840 848 852 829 824 821 807 804 795 791 791 789 788 787 786 785 784 782 777 772 768 763 758 754 750 747 744 741 738 736 735 737 737 739 740 741 742 743 744 745 747 748 749 750 752 752 753
843 838 842 844 847 844 837 815 791 788 786 785 783 782 783 782 782 783 782 780 778 774 767 764 760 757 752 749 745 742 738 736 736 736 737 737 738 739 742 741 742 742 744 745 746 747 747 748 748
826 831 833 853 830 834 828 808 772 778 780 781 779 778 779 779 779 779 779 777 776 773 771 766 763 759 755 753 749 746 742 739 738 738 737 738 738 739 739 739 741 741 743 744 745 744 745 743 743